Weather History for Little Rock, AR

Change the Weather History Date:

Tuesday, January 21, 2014

  Actual Average Record
Temperature  
Mean Temperature 38 °F 41 °F  
Max Temperature 51 °F 51 °F 75 °F (1986)
Min Temperature 25 °F 31 °F 4 °F (1985)
Degree Days  
Heating Degree Days 27 24  
Month to date heating degree days 537 504  
Since 1 July heating degree days 1807 1701  
Cooling Degree Days 0 0  
Month to date cooling degree days 0 0  
Year to date cooling degree days 0 0  
Moisture  
Dew Point 10 °F    
Average Humidity 36    
Maximum Humidity 51    
Minimum Humidity 21    
Precipitation  
Precipitation 0.00 in 0.11 in 3.83 in (1938)
Month to date precipitation 2.34 2.45  
Year to date precipitation 2.34 2.45  
Snow  
Snow 0.00 in 0.10 in 4.00 in (1918)
Month to date snowfall T 1.1  
Since 1 July snowfall 1.3 1.3  
Snow Depth 0.00 in    
Sea Level Pressure  
Sea Level Pressure 30.25 in    
Wind  
Wind Speed 11 mph (North)    
Max Wind Speed 28 mph    
Max Gust Speed 36 mph    
Visibility 10 miles    
Events      
T = Trace of Precipitation, MM = Missing Value Source: NWS Daily Summary

Daily Weather History Graph

Daily Weather History Graph

Search for Another Location

Airport:

Trip Planner

Search our weather history database for the weather conditions in past years. The results will help you decide how hot, cold, wet, or windy it might be!

Date:

Astronomy

Jan. 21, 2014 Rise Set
Actual Time 7:13 AM CST 5:27 PM CST
Civil Twilight 6:46 AM CST 5:54 PM CST
Nautical Twilight 6:15 AM CST 6:24 PM CST
Astronomical Twilight 5:45 AM CST 6:55 PM CST
Moon 10:45 PM CST 9:57 AM CST
Length of Visible Light 11h 07m
Length of Day
10h 13m
Waning Gibbous, 74% of the Moon is Illuminated
Jan 21
Waning Gibbous
Jan 23
Last Quarter
Jan 30
New
Feb 6
First Quarter
Feb 14
Full

Hourly Weather History & Observations

Time (CST) Temp. Windchill Dew Point Humidity Pressure Visibility Wind Dir Wind Speed Gust Speed Precip Events Conditions
12:53 AM 50.0 °F - 19.9 °F 31% 30.06 in 10.0 mi NNW 23.0 mph 28.8 mph N/A   Partly Cloudy
1:53 AM 48.0 °F - 18.0 °F 30% 30.07 in 10.0 mi WNW 9.2 mph - N/A   Clear
2:53 AM 46.9 °F - 18.0 °F 32% 30.07 in 10.0 mi NW 13.8 mph - N/A   Clear
3:53 AM 46.0 °F 38.0 °F 16.0 °F 30% 30.08 in 10.0 mi NW 21.9 mph 33.4 mph N/A   Clear
4:53 AM 43.0 °F 34.0 °F 17.1 °F 35% 30.12 in 10.0 mi NW 21.9 mph 35.7 mph N/A   Clear
5:53 AM 39.0 °F 31.0 °F 16.0 °F 39% 30.17 in 10.0 mi NNW 13.8 mph 24.2 mph N/A   Clear
6:53 AM 34.0 °F 23.8 °F 17.1 °F 50% 30.22 in 10.0 mi North 16.1 mph - N/A   Partly Cloudy
7:53 AM 32.0 °F 23.6 °F 15.1 °F 50% 30.28 in 10.0 mi NNW 10.4 mph 20.7 mph N/A   Scattered Clouds
8:53 AM 33.1 °F 21.2 °F 12.0 °F 42% 30.33 in 10.0 mi North 20.7 mph 33.4 mph N/A   Partly Cloudy
9:53 AM 34.0 °F 23.8 °F 10.0 °F 37% 30.36 in 10.0 mi NNW 16.1 mph 24.2 mph N/A   Partly Cloudy
10:53 AM 34.0 °F 23.4 °F 8.1 °F 34% 30.37 in 10.0 mi North 17.3 mph 25.3 mph N/A   Partly Cloudy
11:53 AM 34.0 °F 25.5 °F 8.1 °F 34% 30.36 in 10.0 mi North 11.5 mph 21.9 mph N/A   Partly Cloudy
12:53 PM 35.1 °F 25.9 °F 7.0 °F 31% 30.34 in 10.0 mi North 13.8 mph 23.0 mph N/A   Partly Cloudy
1:53 PM 36.0 °F 27.1 °F 3.9 °F 26% 30.31 in 10.0 mi NNW 13.8 mph 20.7 mph N/A   Clear
2:53 PM 37.0 °F 28.5 °F 3.0 °F 24% 30.30 in 10.0 mi North 13.8 mph - N/A   Clear
3:53 PM 37.0 °F 31.6 °F 1.9 °F 23% 30.30 in 10.0 mi North 6.9 mph - N/A   Partly Cloudy
4:53 PM 35.1 °F - 1.9 °F 25% 30.29 in 10.0 mi Calm Calm - N/A   Partly Cloudy
5:53 PM 28.9 °F 21.9 °F 6.1 °F 38% 30.29 in 10.0 mi NE 6.9 mph - N/A   Scattered Clouds
6:53 PM 28.9 °F 22.8 °F 7.0 °F 40% 30.29 in 10.0 mi ENE 5.8 mph - N/A   Partly Cloudy
7:53 PM 28.0 °F 22.8 °F 8.1 °F 43% 30.29 in 10.0 mi ENE 4.6 mph - N/A   Scattered Clouds
8:53 PM 27.0 °F - 8.1 °F 45% 30.29 in 10.0 mi Calm Calm - N/A   Scattered Clouds
9:53 PM 27.0 °F 21.6 °F 7.0 °F 43% 30.29 in 10.0 mi ENE 4.6 mph - N/A   Scattered Clouds
10:53 PM 27.0 °F - 9.0 °F 47% 30.27 in 10.0 mi Calm Calm - N/A   Clear
11:53 PM 26.1 °F - 12.9 °F 58% 30.27 in 10.0 mi Calm Calm - N/A   Partly Cloudy